Regional Weather Roundup
Issued by NWS Northern Indiana

Home | Current Version | Previous Version | Text Only | Print | Product List | Glossary On
Versions: 1 2 3 4 5 6 7 8 9 10 11 12 13 14 15 16 17 18 19 20 21 22 23 24 25 26 27 28 29 30 31 32 33 34 35 36 37 38 39 40 41 42 43 44 45 46 47 48 49 50
000
ASUS43 KIWX 261000
RWRIWX

KIWX WEATHER ROUNDUP
NATIONAL WEATHER SERVICE NORTHERN INDIANA
500 AM EST FRI DEC 26 2014

NOTE: "FAIR" INDICATES FEW OR NO CLOUDS BELOW 12,000 FEET WITH NO
SIGNIFICANT WEATHER AND/OR OBSTRUCTIONS TO VISIBILITY.

* THESE STATIONS ARE NOT UNDER NWS QUALITY CONTROL. THEY ALSO MAY NOT
  REPORT WEATHER SUCH AS PRECIPITATION OR FOG.

INZ001>027-261100-
NORTHERN INDIANA

CITY           SKY/WX    TMP DP  RH WIND       PRES   REMARKS
SOUTH BEND     CLEAR     36  31  82 S9        30.05
GOSHEN         CLEAR     35  31  85 S12       30.06F WCI  27
ANGOLA*        CLEAR     32  30  93 S5        30.08F WCI  27
FORT WAYNE     CLEAR     33  30  88 S10       30.12F WCI  25
PERU/GRISSOM   CLEAR     35  35 100 S10       30.09F WCI  28

$$
INZ028>050-261100-
CENTRAL INDIANA

CITY           SKY/WX    TMP DP  RH WIND       PRES   REMARKS
LAFAYETTE      CLEAR     36  32  85 S7        30.10S
KOKOMO*        CLEAR     34  28  80 S14       30.11F WCI  24
MUNCIE*        CLEAR     35  31  85 S10       30.14S WCI  27
INDIANAPOLIS   CLEAR     32  30  92 S10       30.14F WCI  24

$$
MIZ043>046-050>051-056>058-064>065-071>073-077>080-261100-
SOUTHWEST LOWER MICHIGAN

CITY           SKY/WX    TMP DP  RH WIND       PRES   REMARKS
BATTLE CREEK   MOCLDY    35  30  82 S10       30.06F WCI  27
BENTON HARBOR  CLEAR     35  31  85 S7        30.03S WCI  29
COLDWATER*     PTCLDY    34  31  90 MISG      30.07F
HILLSDALE*     PTCLDY    32  32 100 S8        30.09S WCI  25
HOLLAND        MOCLDY    38  32  79 S9        30.02F
GRAND RAPIDS   CLOUDY    36  31  82 S12       30.03F
KALAMAZOO      PTCLDY    35  30  82 S9        30.05F WCI  28
STURGIS*       CLEAR     34  30  86 S8        30.06F WCI  27
THREE RIVERS*  FAIR      33  31  92 S9        30.07S WCI  26

$$
OHZ001>008-015>018-024>025-261100-
NORTHWEST OHIO

CITY           SKY/WX    TMP DP  RH WIND       PRES   REMARKS
DEFIANCE       CLEAR     33  30  88 S7        30.14F WCI  27
FINDLAY        CLEAR     32  28  85 S12       30.16F WCI  23
TOLEDO EXPRESS CLEAR     31  28  89 S6        30.14F WCI  25
TOLEDO METCALF CLEAR     30  26  85 S8        30.16F WCI  22
LIMA           CLEAR     34  29  82 S9        30.17S WCI  27

$$
AND FOR LAKE MICHIGAN COASTAL AND OPEN LAKE BUOY OBSERVATIONS

STATION/POSITION TEMP    WIND        PRES    VSBY  WAVE
                 AIR SEA DIR/SP/G                  HT/PER
                 (F)     (DEG/KT/KT) (MB)    (MI)  (FT/S)
CALUMET HARBOR    37     180/  9/ 14 1014.9F
MICHIGAN CITY     37     160/ 14/ 22   N/A
SAINT JOSEPH      37     130/  3/ 12 1017.3F

$$
&&



USA.gov is the U.S. government's official web portal to all federal, state and local government web resources and services.